LZ1HCO-25 Weather Reports


time (UTC)temp
C
wind
direction
speed
KPH
gust
KPH
rain 1hr
cm
rain 24hr
cm
rain mn
cm
humidity
%
barometer
mb
20260506113111 27 0 0.0 0.0 0.00 0.00 0.00 44 967.0
20260506112559 26 0 0.0 0.0 0.00 0.00 0.00 47 967.0
20260506112048 26 0 0.0 0.0 0.00 0.00 0.00 45 967.0
20260506111537 27 0 0.0 0.0 0.00 0.00 0.00 45 967.0
20260506111025 27 0 0.0 0.0 0.00 0.00 0.00 45 967.0
20260506110514 26 0 0.0 0.0 0.00 0.00 0.00 42 967.0
20260506110003 26 0 0.0 0.0 0.00 0.00 0.00 42 967.0
20260506105451 28 0 0.0 0.0 0.00 0.00 0.00 43 967.0
20260506104940 26 0 0.0 0.0 0.00 0.00 0.00 39 967.0
20260506104429 27 0 0.0 0.0 0.00 0.00 0.00 39 967.0
20260506103917 27 0 0.0 0.0 0.00 0.00 0.00 42 967.0
20260506103406 27 0 0.0 0.0 0.00 0.00 0.00 39 967.0
20260506102855 26 0 0.0 0.0 0.00 0.00 0.00 40 967.0
20260506102343 26 0 0.0 0.0 0.00 0.00 0.00 40 967.0
20260506101832 26 0 0.0 0.0 0.00 0.00 0.00 40 967.0
20260506101320 27 0 0.0 0.0 0.00 0.00 0.00 41 967.0
20260506100809 27 0 0.0 0.0 0.00 0.00 0.00 37 967.0
20260506100258 28 0 0.0 0.0 0.00 0.00 0.00 42 967.0
20260506095746 26 0 0.0 0.0 0.00 0.00 0.00 38 967.0
20260506095235 27 0 0.0 0.0 0.00 0.00 0.00 38 967.0
20260506094724 26 0 0.0 0.0 0.00 0.00 0.00 38 967.0
20260506094212 27 0 0.0 0.0 0.00 0.00 0.00 38 967.0
20260506093701 26 0 0.0 0.0 0.00 0.00 0.00 36 967.0
20260506093150 28 0 0.0 0.0 0.00 0.00 0.00 38 967.0
20260506092638 27 0 0.0 0.0 0.00 0.00 0.00 39 967.0
20260506092127 27 0 0.0 0.0 0.00 0.00 0.00 36 967.0
20260506091615 27 0 0.0 0.0 0.00 0.00 0.00 37 968.0
20260506091104 28 0 0.0 0.0 0.00 0.00 0.00 39 967.0
20260506090553 26 0 0.0 0.0 0.00 0.00 0.00 40 968.0
20260506090041 26 0 0.0 0.0 0.00 0.00 0.00 40 968.0
20260506085530 26 0 0.0 0.0 0.00 0.00 0.00 37 967.0
20260506085217 26 0 0.0 0.0 0.00 0.00 0.00 36 967.0
20260506084705 26 0 0.0 0.0 0.00 0.00 0.00 39 968.0
20260506084154 26 0 0.0 0.0 0.00 0.00 0.00 38 968.0
20260506083643 26 0 0.0 0.0 0.00 0.00 0.00 40 968.0
20260506083131 26 0 0.0 0.0 0.00 0.00 0.00 36 967.0
20260506082620 26 0 0.0 0.0 0.00 0.00 0.00 41 967.0
20260506082109 27 0 0.0 0.0 0.00 0.00 0.00 38 967.0
20260506081557 26 0 0.0 0.0 0.00 0.00 0.00 37 967.0
20260506081046 27 0 0.0 0.0 0.00 0.00 0.00 40 967.0
20260506080534 27 0 0.0 0.0 0.00 0.00 0.00 39 967.0
20260506073426 25 0 0.0 0.0 0.00 0.00 0.00 41 967.0
20260506072915 25 0 0.0 0.0 0.00 0.00 0.00 40 968.0
20260506072404 25 0 0.0 0.0 0.00 0.00 0.00 39 968.0
20260506071852 25 0 0.0 0.0 0.00 0.00 0.00 41 968.0
20260506071341 24 0 0.0 0.0 0.00 0.00 0.00 41 968.0
20260506070830 23 0 0.0 0.0 0.00 0.00 0.00 41 968.0
20260506070318 24 0 0.0 0.0 0.00 0.00 0.00 42 968.0
20260506062218 22 0 0.0 0.0 0.00 0.00 0.00 42 968.0
20260506061707 22 0 0.0 0.0 0.00 0.00 0.00 45 968.0
20260506061155 22 0 0.0 0.0 0.00 0.00 0.00 44 968.0
20260506060644 22 0 0.0 0.0 0.00 0.00 0.00 46 968.0
20260506060133 21 0 0.0 0.0 0.00 0.00 0.00 46 968.0
20260506050939 18 0 0.0 0.0 0.00 0.00 0.00 86 968.0
20260506050427 17 0 0.0 0.0 0.00 0.00 0.00 92 968.0
20260506044853 16 0 0.0 0.0 0.00 0.00 0.00 98 968.0
20260506044342 16 0 0.0 0.0 0.00 0.00 0.00 99 968.0
20260506043831 15 0 0.0 0.0 0.00 0.00 0.00 99 968.0
20260506043319 15 0 0.0 0.0 0.00 0.00 0.00 96 968.0
20260506042808 15 0 0.0 0.0 0.00 0.00 0.00 96 968.0
20260506042257 15 0 0.0 0.0 0.00 0.00 0.00 98 968.0
20260506041745 14 0 0.0 0.0 0.00 0.00 0.00 99 968.0
20260506041234 14 0 0.0 0.0 0.00 0.00 0.00 99 967.0
20260506040723 13 0 0.0 0.0 0.00 0.00 0.00 99 967.0
20260506040211 13 0 0.0 0.0 0.00 0.00 0.00 99 967.0
20260506035700 12 0 0.0 0.0 0.00 0.00 0.00 99 967.0
20260506035148 12 0 0.0 0.0 0.00 0.00 0.00 99 967.0
20260506034637 12 0 0.0 0.0 0.00 0.00 0.00 99 967.0
20260506034127 12 0 0.0 0.0 0.00 0.00 0.00 99 967.0
20260506033614 11 0 0.0 0.0 0.00 0.00 0.00 99 967.0
20260506033103 11 0 0.0 0.0 0.00 0.00 0.00 99 967.0
20260506032552 11 0 0.0 0.0 0.00 0.00 0.00 99 967.0
20260506032040 11 0 0.0 0.0 0.00 0.00 0.00 99 967.0
20260506031529 11 0 0.0 0.0 0.00 0.00 0.00 99 967.0
20260506031018 11 0 0.0 0.0 0.00 0.00 0.00 99 967.0
20260506030506 11 0 0.0 0.0 0.00 0.00 0.00 99 967.0
20260506025955 11 0 0.0 0.0 0.00 0.00 0.00 99 967.0
20260506025443 11 0 0.0 0.0 0.00 0.00 0.00 99 967.0
20260506024932 11 0 0.0 0.0 0.00 0.00 0.00 99 967.0
20260506024421 11 0 0.0 0.0 0.00 0.00 0.00 99 967.0
20260506023909 11 0 0.0 0.0 0.00 0.00 0.00 99 967.0
20260506023358 11 0 0.0 0.0 0.00 0.00 0.00 99 967.0
20260506022847 11 0 0.0 0.0 0.00 0.00 0.00 99 967.0
20260506022335 12 0 0.0 0.0 0.00 0.00 0.00 99 967.0
20260506021824 12 0 0.0 0.0 0.00 0.00 0.00 99 967.0
20260506021313 12 0 0.0 0.0 0.00 0.00 0.00 99 967.0
20260506020801 12 0 0.0 0.0 0.00 0.00 0.00 99 967.0
20260506020250 12 0 0.0 0.0 0.00 0.00 0.00 99 967.0
20260506015739 12 0 0.0 0.0 0.00 0.00 0.00 99 967.0
20260506015227 12 0 0.0 0.0 0.00 0.00 0.00 99 967.0
20260506014716 12 0 0.0 0.0 0.00 0.00 0.00 99 967.0
20260506014204 12 0 0.0 0.0 0.00 0.00 0.00 99 967.0
20260506013653 12 0 0.0 0.0 0.00 0.00 0.00 99 967.0
20260506013142 12 0 0.0 0.0 0.00 0.00 0.00 99 967.0
20260506012630 12 0 0.0 0.0 0.00 0.00 0.00 99 967.0
20260506012119 12 0 0.0 0.0 0.00 0.00 0.00 99 967.0
20260506011608 12 0 0.0 0.0 0.00 0.00 0.00 99 967.0
20260506011056 12 0 0.0 0.0 0.00 0.00 0.00 99 967.0
20260506010545 11 0 0.0 0.0 0.00 0.00 0.00 99 967.0
20260506010034 11 0 0.0 0.0 0.00 0.00 0.00 99 967.0
20260506005522 11 0 0.0 0.0 0.00 0.00 0.00 99 967.0
20260506005011 12 0 0.0 0.0 0.00 0.00 0.00 99 967.0
20260506004459 12 0 0.0 0.0 0.00 0.00 0.00 99 967.0
20260506003948 12 0 0.0 0.0 0.00 0.00 0.00 99 967.0
20260506003437 11 0 0.0 0.0 0.00 0.00 0.00 99 967.0
20260506002925 12 0 0.0 0.0 0.00 0.00 0.00 99 967.0
20260506002414 12 0 0.0 0.0 0.00 0.00 0.00 99 967.0
20260506001903 12 0 0.0 0.0 0.00 0.00 0.00 99 967.0
20260506001351 12 0 0.0 0.0 0.00 0.00 0.00 99 967.0
20260506000840 12 0 0.0 0.0 0.00 0.00 0.00 99 967.0
20260506000330 11 0 0.0 0.0 0.00 0.00 0.00 99 967.0
20260505235817 11 0 0.0 0.0 0.00 0.00 0.00 99 967.0
20260505235306 12 0 0.0 0.0 0.00 0.00 0.00 99 967.0
20260505234754 12 0 0.0 0.0 0.00 0.00 0.00 99 967.0
20260505234243 12 0 0.0 0.0 0.00 0.00 0.00 99 967.0
20260505233732 12 0 0.0 0.0 0.00 0.00 0.00 99 967.0
20260505233220 12 0 0.0 0.0 0.00 0.00 0.00 99 967.0
20260505232709 12 0 0.0 0.0 0.00 0.00 0.00 99 967.0
20260505232158 12 0 0.0 0.0 0.00 0.00 0.00 99 967.0
20260505231646 12 0 0.0 0.0 0.00 0.00 0.00 99 967.0
20260505231135 12 0 0.0 0.0 0.00 0.00 0.00 99 967.0
20260505230624 12 0 0.0 0.0 0.00 0.00 0.00 99 967.0
20260505230112 11 0 0.0 0.0 0.00 0.00 0.00 99 967.0
20260505225601 11 0 0.0 0.0 0.00 0.00 0.00 99 967.0
20260505225050 11 0 0.0 0.0 0.00 0.00 0.00 99 967.0
20260505224538 12 0 0.0 0.0 0.00 0.00 0.00 99 967.0
20260505224027 11 0 0.0 0.0 0.00 0.00 0.00 99 967.0
20260505223515 12 0 0.0 0.0 0.00 0.00 0.00 99 967.0
20260505223004 12 0 0.0 0.0 0.00 0.00 0.00 99 967.0
20260505222453 12 0 0.0 0.0 0.00 0.00 0.00 99 967.0
20260505221941 12 0 0.0 0.0 0.00 0.00 0.00 99 967.0
20260505221430 11 0 0.0 0.0 0.00 0.00 0.00 99 967.0
20260505220919 12 0 0.0 0.0 0.00 0.00 0.00 99 967.0
20260505220407 12 0 0.0 0.0 0.00 0.00 0.00 99 967.0
20260505215856 12 0 0.0 0.0 0.00 0.00 0.00 99 967.0
20260505215344 12 0 0.0 0.0 0.00 0.00 0.00 99 967.0
20260505214833 12 0 0.0 0.0 0.00 0.00 0.00 99 967.0
20260505214322 12 0 0.0 0.0 0.00 0.00 0.00 99 967.0
20260505213810 12 0 0.0 0.0 0.00 0.00 0.00 99 967.0
20260505213259 13 0 0.0 0.0 0.00 0.00 0.00 99 967.0
20260505212748 13 0 0.0 0.0 0.00 0.00 0.00 98 967.0
20260505212236 13 0 0.0 0.0 0.00 0.00 0.00 97 967.0
20260505211725 13 0 0.0 0.0 0.00 0.00 0.00 99 967.0
20260505211214 13 0 0.0 0.0 0.00 0.00 0.00 99 967.0
20260505210702 13 0 0.0 0.0 0.00 0.00 0.00 99 967.0
20260505210151 13 0 0.0 0.0 0.00 0.00 0.00 99 967.0
20260505205640 13 0 0.0 0.0 0.00 0.00 0.00 99 967.0
20260505205128 13 0 0.0 0.0 0.00 0.00 0.00 99 967.0
20260505204617 13 0 0.0 0.0 0.00 0.00 0.00 97 967.0
20260505204105 13 0 0.0 0.0 0.00 0.00 0.00 95 967.0
20260505203554 13 0 0.0 0.0 0.00 0.00 0.00 93 968.0
20260505203043 13 0 0.0 0.0 0.00 0.00 0.00 94 968.0
20260505202531 13 0 0.0 0.0 0.00 0.00 0.00 97 968.0
20260505202020 13 0 0.0 0.0 0.00 0.00 0.00 94 968.0
20260505201509 13 0 0.0 0.0 0.00 0.00 0.00 93 967.0
20260505200957 13 0 0.0 0.0 0.00 0.00 0.00 97 967.0
20260505200446 13 0 0.0 0.0 0.00 0.00 0.00 92 967.0
20260505195935 13 0 0.0 0.0 0.00 0.00 0.00 92 967.0
20260505195423 14 0 0.0 0.0 0.00 0.00 0.00 90 967.0
20260505194912 14 0 0.0 0.0 0.00 0.00 0.00 87 967.0
20260505194400 14 0 0.0 0.0 0.00 0.00 0.00 83 967.0
20260505193849 14 0 0.0 0.0 0.00 0.00 0.00 84 967.0
20260505193338 14 0 0.0 0.0 0.00 0.00 0.00 84 967.0
20260505193039 15 0 0.0 0.0 0.00 0.00 0.00 81 967.0
20260505192527 15 0 0.0 0.0 0.00 0.00 0.00 77 967.0
20260505192016 15 0 0.0 0.0 0.00 0.00 0.00 78 967.0
20260505191505 15 0 0.0 0.0 0.00 0.00 0.00 79 967.0
20260505190953 15 0 0.0 0.0 0.00 0.00 0.00 78 967.0
20260505190442 15 0 0.0 0.0 0.00 0.00 0.00 76 967.0
20260505185930 15 0 0.0 0.0 0.00 0.00 0.00 78 967.0
20260505185419 15 0 0.0 0.0 0.00 0.00 0.00 76 967.0
20260505184908 15 0 0.0 0.0 0.00 0.00 0.00 73 967.0
20260505184356 16 0 0.0 0.0 0.00 0.00 0.00 71 967.0
20260505183845 16 0 0.0 0.0 0.00 0.00 0.00 71 967.0
20260505183334 16 0 0.0 0.0 0.00 0.00 0.00 69 967.0
20260505182822 15 0 0.0 0.0 0.00 0.00 0.00 69 967.0
20260505182311 16 0 0.0 0.0 0.00 0.00 0.00 67 967.0
20260505181800 16 0 0.0 0.0 0.00 0.00 0.00 67 967.0
20260505181248 17 0 0.0 0.0 0.00 0.00 0.00 66 967.0
20260505180737 17 0 0.0 0.0 0.00 0.00 0.00 65 967.0
20260505180225 17 0 0.0 0.0 0.00 0.00 0.00 64 967.0
20260505175714 17 0 0.0 0.0 0.00 0.00 0.00 65 967.0
20260505175203 17 0 0.0 0.0 0.00 0.00 0.00 63 967.0
20260505174651 17 0 0.0 0.0 0.00 0.00 0.00 65 967.0
20260505174140 17 0 0.0 0.0 0.00 0.00 0.00 63 967.0
20260505173629 18 0 0.0 0.0 0.00 0.00 0.00 61 967.0
20260505173117 18 0 0.0 0.0 0.00 0.00 0.00 62 967.0
20260505172606 18 0 0.0 0.0 0.00 0.00 0.00 62 967.0
20260505172055 17 0 0.0 0.0 0.00 0.00 0.00 69 967.0
20260505171543 18 0 0.0 0.0 0.00 0.00 0.00 62 967.0
20260505171032 19 0 0.0 0.0 0.00 0.00 0.00 60 966.0
20260505170521 20 0 0.0 0.0 0.00 0.00 0.00 52 966.0
20260505170009 21 0 0.0 0.0 0.00 0.00 0.00 47 966.0
20260505165458 21 0 0.0 0.0 0.00 0.00 0.00 49 966.0
20260505164946 21 0 0.0 0.0 0.00 0.00 0.00 44 966.0
20260505164435 21 0 0.0 0.0 0.00 0.00 0.00 43 966.0
20260505163924 22 0 0.0 0.0 0.00 0.00 0.00 43 966.0
20260505163412 22 0 0.0 0.0 0.00 0.00 0.00 43 966.0
20260505162901 22 0 0.0 0.0 0.00 0.00 0.00 42 966.0
20260505162350 22 0 0.0 0.0 0.00 0.00 0.00 42 966.0
20260505161838 22 0 0.0 0.0 0.00 0.00 0.00 41 966.0
20260505161421 22 0 0.0 0.0 0.00 0.00 0.00 41 966.0
20260505160910 22 0 0.0 0.0 0.00 0.00 0.00 41 966.0
20260505160358 23 0 0.0 0.0 0.00 0.00 0.00 40 966.0
20260505153250 24 0 0.0 0.0 0.00 0.00 0.00 37 966.0
20260505152739 25 0 0.0 0.0 0.00 0.00 0.00 38 966.0
20260505152227 25 0 0.0 0.0 0.00 0.00 0.00 36 966.0
20260505151716 24 0 0.0 0.0 0.00 0.00 0.00 37 966.0
20260505151205 25 0 0.0 0.0 0.00 0.00 0.00 37 966.0
20260505150653 24 0 0.0 0.0 0.00 0.00 0.00 36 966.0
20260505150142 25 0 0.0 0.0 0.00 0.00 0.00 36 966.0
20260505140437 26 0 0.0 0.0 0.00 0.00 0.00 35 967.0
20260505130221 25 0 0.0 0.0 0.00 0.00 0.00 35 967.0
20260505124646 26 0 0.0 0.0 0.00 0.00 0.00 36 967.0
20260505124135 26 0 0.0 0.0 0.00 0.00 0.00 37 968.0
20260505123624 26 0 0.0 0.0 0.00 0.00 0.00 37 968.0
20260505123112 26 0 0.0 0.0 0.00 0.00 0.00 38 968.0
20260505122601 26 0 0.0 0.0 0.00 0.00 0.00 39 968.0
20260505122050 26 0 0.0 0.0 0.00 0.00 0.00 38 968.0
20260505121538 26 0 0.0 0.0 0.00 0.00 0.00 37 968.0
20260505121027 26 0 0.0 0.0 0.00 0.00 0.00 37 968.0
20260505120516 27 0 0.0 0.0 0.00 0.00 0.00 39 968.0
20260505120005 26 0 0.0 0.0 0.00 0.00 0.00 40 968.0
20260505115453 27 0 0.0 0.0 0.00 0.00 0.00 39 968.0
20260505114942 26 0 0.0 0.0 0.00 0.00 0.00 36 968.0
20260505114430 27 0 0.0 0.0 0.00 0.00 0.00 41 968.0
20260505113919 26 0 0.0 0.0 0.00 0.00 0.00 38 968.0